Theta_e
293 287 284 284 283 286 288 288 289 289 289 288 289 289 287 286 288 289 291 293 293 291 290 288 289 288 289 291 295 306 312 310 311 313 315 317 318 317 317 316 316 317 318 320 321 322 322 322 323 322 321 323 323 323 323 322 321 321 320 319 317 317 318 318 315 312 314 317 318 319 320 318 315 318 317 316 316 319 321 323 324 324 324 325 325 327
294 286 284 287 288 289 290 291 291 291 291 289 288 287 285 286 284 290 291 292 291 291 286 287 287 288 288 289 292 299 306 307 310 312 314 316 317 317 316 316 316 316 315 319 319 320 320 321 320 319 321 323 321 322 321 321 321 320 320 319 318 317 317 317 315 314 312 315 321 320 318 315 315 315 315 314 315 317 320 319 321 323 323 323 324 326
285 284 288 290 291 292 293 292 292 291 291 290 287 286 285 284 286 290 289 292 296 293 286 288 288 288 290 292 292 299 305 308 311 314 316 316 315 316 316 316 314 314 314 316 317 317 318 319 318 318 320 322 323 322 321 322 321 320 319 319 318 318 318 316 315 312 312 312 316 318 314 315 312 312 314 314 316 316 314 313 315 318 320 323 324 324
285 284 290 292 292 291 291 293 292 291 289 288 287 286 283 284 287 284 289 292 295 293 287 288 289 288 289 292 292 293 302 306 308 313 315 317 316 315 316 315 314 314 313 315 316 316 318 318 317 317 320 322 323 323 322 321 320 319 319 318 318 318 317 316 319 318 313 315 315 315 314 313 312 313 315 312 311 312 313 313 314 314 315 319 320 322
286 289 291 292 292 292 291 291 292 289 286 287 288 286 285 286 285 286 286 291 292 294 291 288 284 284 286 289 292 294 294 302 307 311 310 312 315 316 316 314 315 315 314 315 315 315 316 317 316 318 320 321 322 322 322 321 320 320 318 318 318 318 317 317 321 316 316 316 314 314 314 314 313 312 310 311 312 313 315 313 312 312 313 314 314 314
288 292 294 292 291 291 290 288 289 290 284 284 287 289 288 286 289 288 289 288 282 283 289 287 278 282 285 287 288 290 294 300 303 308 309 312 311 311 312 312 314 315 315 316 315 316 317 318 317 316 318 319 321 322 323 322 321 320 318 318 318 317 317 318 316 316 317 316 313 312 312 310 309 308 308 308 309 309 310 311 311 311 312 313 312 312
288 292 293 291 291 290 289 288 289 290 284 284 287 290 289 289 289 289 289 287 282 282 289 291 282 278 281 291 293 291 292 297 300 305 309 310 310 310 312 312 312 313 313 314 315 315 315 316 316 315 316 318 321 322 323 323 321 320 318 317 317 317 317 317 315 315 317 314 313 313 312 312 311 309 307 307 307 309 309 310 310 310 309 309 309 309
294 291 291 292 291 289 288 286 289 290 285 283 288 290 289 289 289 289 288 285 283 286 289 287 283 280 280 284 289 290 290 293 297 300 302 307 307 308 309 311 311 313 314 315 314 315 316 316 316 315 317 318 321 322 323 323 322 320 318 317 316 317 318 316 314 314 316 314 312 311 311 312 310 310 310 310 309 309 312 310 309 308 308 308 308 309
290 290 291 291 290 287 287 288 290 291 287 285 290 291 288 290 289 289 286 285 286 286 281 281 287 283 278 281 288 290 290 289 293 298 300 304 306 307 308 309 311 313 314 315 314 314 314 314 315 316 316 318 320 323 324 323 322 321 319 317 316 317 318 314 314 314 314 315 312 312 312 310 309 311 311 312 313 311 310 309 307 306 306 307 308 309
292 292 291 291 288 287 288 287 292 292 289 290 289 291 289 290 290 287 283 285 283 279 276 281 285 282 277 279 285 289 288 287 289 293 300 302 306 307 308 309 310 311 311 312 314 314 314 314 315 316 317 317 320 323 324 324 322 321 319 317 316 316 316 314 313 313 312 313 313 311 311 311 311 313 311 310 310 309 308 307 305 305 306 307 307 306
293 298 298 293 290 290 290 289 292 293 292 293 290 290 287 285 284 285 282 282 279 275 276 280 283 282 279 279 283 286 290 289 288 289 291 297 304 308 308 308 308 310 311 311 310 310 311 311 311 311 316 317 316 317 321 322 322 320 318 317 316 316 316 314 312 312 311 311 312 312 312 312 312 311 311 309 308 308 306 306 304 304 305 306 306 308
290 290 293 292 297 294 293 291 291 290 290 291 290 285 285 286 281 280 276 278 275 272 277 281 284 284 279 278 285 286 289 290 291 291 292 294 301 307 308 308 308 309 310 308 308 308 308 309 309 309 313 315 316 317 320 321 321 320 319 317 315 315 314 313 312 311 310 310 311 312 313 313 313 312 311 310 310 309 307 305 305 304 305 304 305 305
288 289 288 291 300 295 290 289 287 285 285 287 285 285 281 277 273 276 275 276 274 275 283 282 283 283 280 279 288 290 290 291 291 293 294 294 298 306 308 307 308 308 307 307 307 308 308 308 309 309 310 312 315 318 320 321 322 321 319 316 315 314 312 312 310 309 309 309 311 313 313 313 313 312 311 310 310 309 307 306 304 304 305 303 304 304
283 286 289 290 292 295 292 286 284 286 283 286 285 280 278 274 269 268 269 271 275 279 282 283 286 281 280 286 289 290 293 293 293 293 296 297 299 305 307 307 307 306 307 307 308 309 308 308 309 310 310 312 316 317 319 320 321 321 319 316 314 313 313 312 312 312 312 312 313 313 314 314 314 312 311 310 311 309 307 307 306 305 305 304 304 305
277 281 285 288 287 292 291 289 287 283 283 285 285 286 283 276 275 269 274 271 274 277 280 283 282 279 280 284 291 292 294 293 296 299 300 301 303 304 305 305 305 305 304 306 306 308 308 308 308 309 310 310 313 316 317 318 319 320 318 316 313 313 313 313 312 312 312 313 314 314 314 315 314 313 312 311 312 310 308 306 306 306 305 304 305 305
283 280 286 291 293 292 290 292 289 286 286 285 284 285 283 281 278 279 276 277 277 278 277 282 279 279 283 289 293 293 296 297 299 301 303 303 304 305 305 305 306 306 307 307 307 308 308 308 309 308 309 311 312 314 316 316 317 319 319 316 313 313 313 314 314 315 314 314 315 314 313 314 314 314 313 312 312 310 309 307 306 306 306 305 305 305
282 283 289 290 292 291 290 291 291 289 282 284 284 282 282 285 284 276 276 279 273 274 273 273 281 280 284 289 293 293 297 297 299 300 301 302 303 304 304 305 306 307 308 308 309 308 308 308 308 309 309 309 308 310 314 316 317 318 315 314 313 314 315 316 316 316 316 315 316 315 313 314 314 313 312 313 311 310 309 308 306 307 306 305 305 307
281 279 286 288 289 293 293 291 290 289 288 283 281 281 287 289 287 281 275 272 269 270 271 277 277 278 278 277 290 291 293 296 298 298 299 301 304 304 304 305 306 307 307 307 308 307 307 307 308 309 309 310 311 310 311 312 313 315 315 314 313 314 314 315 315 315 315 316 316 316 315 315 314 313 313 313 312 310 309 307 307 306 307 306 307 307
285 280 282 287 289 291 291 289 288 289 289 287 283 287 285 276 280 278 277 269 270 270 267 276 276 279 279 282 284 290 290 293 296 297 300 301 302 302 303 305 305 306 306 306 306 307 305 305 306 307 309 310 310 311 313 314 315 315 314 315 315 315 316 317 318 318 317 317 317 317 316 316 314 313 314 314 313 311 310 308 307 307 308 307 307 309
284 280 280 285 288 290 289 287 279 283 287 286 287 285 285 279 277 278 275 277 274 267 268 274 275 275 282 282 287 287 288 289 291 293 296 298 300 302 303 303 304 304 304 304 304 305 304 305 306 307 308 309 310 311 313 314 314 314 315 315 316 317 318 317 317 317 316 315 315 316 316 316 314 313 313 314 313 311 311 310 309 308 307 308 309 307
283 282 277 284 287 289 284 284 282 281 281 282 281 278 282 282 282 281 282 280 275 269 264 269 270 280 282 285 288 290 290 290 293 295 294 296 298 300 300 301 303 303 302 303 303 303 304 304 305 307 307 309 310 311 312 314 314 314 314 315 316 316 316 315 315 315 315 316 313 314 315 315 314 313 313 313 313 312 312 311 310 309 309 308 308 308
281 281 280 280 283 281 284 288 289 285 285 284 281 282 280 280 280 277 274 280 278 275 270 267 270 274 283 291 292 290 291 290 293 295 295 297 299 300 300 301 302 303 302 302 303 303 303 303 304 305 307 308 309 310 311 312 313 313 313 314 315 315 316 315 315 314 315 313 313 313 314 315 315 313 312 312 313 312 312 311 311 310 308 308 309 309
285 281 279 281 282 284 287 290 290 290 290 287 285 284 283 281 278 274 272 276 277 279 278 277 274 276 286 290 292 292 292 291 292 297 297 298 298 298 300 301 301 302 303 303 303 303 303 303 303 304 305 304 306 308 308 309 311 312 312 312 313 314 313 313 314 313 313 313 314 314 315 315 314 312 311 311 311 311 311 311 311 311 310 309 309 309
303 277 280 280 283 286 289 289 289 289 288 286 285 284 284 281 284 278 275 278 277 278 278 275 272 276 284 292 291 292 294 294 295 295 297 297 298 299 300 301 301 302 302 302 302 302 303 303 304 304 304 304 303 304 306 308 308 310 310 311 312 312 312 313 313 313 313 312 311 313 313 312 313 313 311 310 311 311 310 310 311 312 311 310 309 309
282 281 278 276 276 280 283 285 286 287 286 282 283 283 283 284 283 282 280 278 275 280 277 274 270 275 287 291 292 292 294 295 295 296 296 298 298 300 301 301 301 301 301 301 302 302 303 303 303 302 302 301 301 301 300 304 306 308 308 309 311 309 310 311 311 312 312 312 312 312 312 312 313 313 312 311 309 309 309 310 311 311 309 308 308 309
283 281 279 274 271 271 272 274 275 278 282 281 284 282 283 283 282 281 279 275 274 279 278 273 272 279 285 290 290 291 290 292 293 295 297 296 299 300 300 301 301 301 300 299 299 301 301 301 301 301 300 300 300 300 300 301 303 304 305 305 307 308 307 308 309 311 311 312 312 311 311 311 312 312 311 311 309 309 310 312 312 312 311 311 310 310
282 281 279 277 276 274 277 282 286 284 280 280 283 281 282 282 281 280 276 272 274 275 273 279 280 280 285 286 287 288 289 289 290 291 293 295 296 297 297 299 299 299 299 299 298 298 298 300 299 300 300 299 299 299 299 301 303 304 304 305 307 308 308 308 309 309 310 310 310 311 311 311 311 312 312 312 312 312 313 312 312 312 312 312 312 312
281 280 282 281 280 280 281 282 284 285 282 281 281 282 281 280 279 276 273 278 279 279 275 280 280 280 282 284 285 287 288 289 290 291 292 294 295 295 295 296 300 297 297 297 297 298 298 297 298 298 298 298 298 298 299 300 303 304 305 306 306 308 309 310 309 309 309 309 310 310 310 311 312 313 313 313 313 313 313 312 312 311 311 312 312 313
282 279 284 282 281 282 282 283 284 285 284 284 283 282 282 281 280 280 280 280 278 273 275 280 282 281 281 283 285 286 287 288 289 291 293 294 295 295 296 296 296 296 295 296 295 296 296 296 296 296 296 296 297 297 298 299 300 302 303 305 307 308 309 310 310 310 310 310 310 310 311 311 312 313 313 314 314 314 314 313 313 313 313 313 312 313
282 279 284 282 282 283 282 282 284 284 283 284 283 283 283 282 280 280 280 279 279 279 281 280 280 279 282 283 285 286 288 289 291 293 295 294 294 295 295 295 296 296 296 296 296 296 295 295 294 295 295 295 295 295 296 296 297 299 301 301 302 306 309 309 309 310 309 309 309 309 310 312 313 313 313 312 313 313 313 313 313 313 313 313 313 313
286 279 287 281 279 282 283 283 284 285 285 282 283 283 283 283 282 281 280 281 283 280 280 280 280 279 283 285 286 287 288 289 291 291 292 293 294 294 293 293 293 293 294 294 295 295 296 296 296 295 295 294 295 295 295 294 294 295 296 298 300 302 304 306 307 307 308 308 309 310 310 311 312 313 312 312 313 312 312 312 312 312 312 312 312 312
284 281 283 280 278 280 282 282 283 285 284 283 282 282 282 281 279 280 278 280 278 279 279 280 279 276 282 285 286 286 287 287 287 287 289 291 293 294 293 292 292 293 293 294 294 295 295 296 296 296 296 296 295 295 295 295 294 294 295 295 296 297 298 301 303 304 305 306 306 307 309 309 310 310 309 308 308 310 311 312 311 311 311 311 311 312
280 281 279 277 277 276 281 281 282 281 281 279 277 281 281 281 281 281 282 283 281 279 276 275 275 281 283 285 283 285 285 286 286 286 287 288 289 292 293 293 293 293 293 294 294 294 294 295 296 296 296 297 297 296 296 296 295 295 295 295 296 297 296 296 297 299 301 302 303 304 305 306 308 307 306 306 307 308 310 310 310 308 307 307 308 307
280 280 277 279 275 274 281 280 280 278 270 270 280 285 285 281 281 280 279 280 282 282 280 280 281 282 282 283 283 283 284 285 286 287 288 287 287 287 289 292 294 294 293 293 295 295 295 295 296 296 296 296 298 298 297 297 297 296 296 296 294 294 294 294 294 295 297 299 301 301 301 302 302 303 304 304 304 305 308 308 308 306 304 304 304 306
280 277 276 276 272 274 276 277 275 269 269 281 283 285 286 285 283 281 281 282 282 283 283 282 282 282 283 283 284 284 284 286 287 287 287 288 288 287 287 288 291 293 292 291 291 293 296 296 297 297 297 297 299 299 298 298 297 297 297 295 294 293 293 293 293 293 295 296 296 297 298 299 298 299 299 298 298 299 300 303 300 301 302 303 304 304
278 277 275 275 270 272 270 268 268 267 279 282 283 284 286 284 282 282 280 281 282 282 282 281 282 282 283 283 284 285 285 286 286 287 287 288 288 288 287 287 288 289 291 292 291 292 294 296 297 297 297 298 299 299 298 297 298 298 297 295 294 293 292 293 293 293 293 294 295 296 296 297 295 295 295 295 295 295 296 295 296 297 296 295 295 295
282 280 278 276 276 271 268 266 270 280 279 280 279 281 281 280 281 278 274 277 282 281 281 280 281 281 282 283 283 284 284 284 282 284 287 287 287 288 288 288 288 288 288 289 289 290 292 293 296 299 299 299 299 301 300 300 300 299 298 297 297 294 293 292 293 294 294 296 294 296 296 296 296 296 294 294 294 294 294 294 293 293 293 293 292 294
283 281 278 278 275 272 270 267 270 269 267 274 278 281 284 284 284 282 279 277 282 281 282 281 280 280 281 282 282 282 284 280 278 280 284 286 287 287 287 288 288 288 288 288 288 289 290 291 292 295 297 298 297 298 300 300 300 299 298 297 297 296 296 295 295 294 295 295 295 297 297 296 297 296 295 294 295 294 293 292 292 292 293 294 293 294
283 281 280 280 274 271 270 268 265 266 266 270 277 280 283 283 283 281 277 274 279 279 281 281 280 280 281 281 281 282 280 277 276 280 283 285 286 286 286 287 287 287 287 287 287 288 289 289 291 292 293 293 294 295 298 299 298 298 298 298 297 297 297 297 295 294 294 295 294 293 295 295 295 296 296 296 295 294 293 293 294 292 291 293 293 292
281 277 275 273 271 271 270 269 267 265 269 278 279 281 282 282 283 280 270 267 278 280 281 280 280 280 280 281 282 282 280 275 277 281 285 286 286 286 287 287 287 287 288 288 288 288 289 290 289 289 289 290 291 293 294 295 296 296 296 297 297 296 296 296 297 295 295 296 295 295 295 295 296 295 295 295 295 295 296 296 295 292 293 290 293 293
276 276 276 271 269 273 272 267 270 272 277 280 281 282 282 284 282 272 266 271 280 280 281 280 280 281 280 281 281 278 283 284 285 286 287 288 288 288 289 289 288 287 287 287 288 292 288 288 288 288 288 288 290 291 291 293 292 293 293 294 294 296 298 299 298 299 300 296 294 294 294 294 295 295 294 293 294 294 295 294 294 293 293 293 291 292
275 274 275 274 272 270 267 269 270 271 276 282 282 283 283 281 272 268 275 280 280 281 282 281 281 281 280 281 281 280 281 283 285 285 285 287 287 288 289 289 289 289 290 290 291 290 288 288 289 288 288 289 289 290 290 290 291 291 291 291 292 293 296 299 299 298 297 297 294 295 296 295 295 296 297 295 295 296 297 295 295 294 292 291 291 291
275 272 273 271 273 271 270 269 270 269 278 282 283 280 283 275 274 281 282 282 282 281 281 282 282 282 281 281 280 281 280 281 281 282 283 284 285 286 287 288 288 288 288 288 288 289 289 288 288 288 288 289 290 290 290 289 290 290 290 290 291 293 294 294 295 297 297 296 296 296 297 297 297 298 299 298 297 296 296 295 295 294 293 292 291 291
281 274 274 274 279 270 270 268 269 276 279 284 282 276 281 283 284 284 284 282 284 283 282 281 281 281 281 282 282 281 281 281 282 282 283 284 285 285 286 286 287 288 288 288 288 287 288 287 288 288 288 289 290 290 290 290 290 290 290 290 292 292 293 293 293 293 295 295 295 295 296 297 296 295 295 295 295 294 294 292 294 294 293 292 292 291
281 279 280 274 279 276 274 276 281 282 282 284 285 285 285 286 287 286 286 285 284 284 284 283 283 282 281 282 281 281 280 281 282 283 282 283 284 284 284 285 286 286 286 287 287 288 288 288 287 287 288 288 289 289 290 290 291 290 290 291 292 291 292 293 293 293 293 294 295 296 296 296 296 295 293 293 293 292 291 290 290 291 289 291 290 290
283 283 283 281 279 283 283 284 285 284 285 285 286 287 286 286 286 285 285 283 284 284 282 282 283 283 283 282 282 281 281 282 281 282 282 283 283 284 285 286 286 286 287 287 288 288 289 289 289 288 288 289 288 288 289 289 289 290 291 293 293 294 294 293 293 293 293 292 291 293 295 296 296 296 296 294 293 293 292 293 292 291 290 289 289 289
280 279 277 277 281 277 273 282 282 283 284 285 285 286 286 286 286 285 284 283 284 283 283 282 282 282 283 282 283 282 281 281 281 281 282 283 283 284 284 285 285 285 285 286 287 288 288 288 288 288 289 289 289 287 289 289 289 289 290 291 293 294 294 294 294 294 293 293 292 290 291 293 293 292 292 293 292 292 293 291 291 292 291 291 291 289
277 280 277 276 275 269 273 280 281 283 284 285 284 284 285 285 286 285 284 283 283 283 283 284 283 283 283 283 282 282 281 281 281 281 281 281 282 283 283 284 284 284 285 285 286 287 286 286 286 287 287 288 289 288 289 289 290 291 291 291 291 292 293 293 293 293 293 294 293 292 292 293 291 293 293 290 288 289 288 290 292 292 292 291 290 290
277 280 271 276 275 276 277 279 278 281 281 282 283 283 283 283 283 284 283 283 283 284 283 283 283 283 282 282 281 281 280 280 281 281 281 281 281 282 282 283 283 284 284 284 285 285 285 285 286 286 286 286 287 288 288 289 289 290 290 291 291 291 290 291 291 292 292 293 292 293 292 292 292 293 292 288 285 282 283 285 288 290 291 290 290 294
277 275 276 274 271 269 271 277 278 273 270 277 279 281 282 283 282 282 282 283 282 283 282 282 282 281 282 281 281 281 280 280 280 280 281 281 281 282 282 283 283 283 284 285 285 285 285 286 285 285 285 286 286 287 287 288 289 290 290 291 291 290 290 290 290 290 291 292 292 292 292 292 291 291 290 289 287 287 286 285 287 285 287 287 291 293
277 277 274 266 266 267 274 277 279 276 276 277 281 282 282 283 282 282 282 282 283 282 281 281 281 280 281 282 282 282 280 280 281 280 280 281 282 283 283 283 283 283 284 284 284 284 284 284 285 285 285 285 286 287 287 288 289 289 289 289 290 290 290 289 289 289 289 290 290 291 292 292 291 289 289 289 288 289 287 285 286 287 287 288 289 290
Wind_Speed
1 2 4 5 7 8 5 6 7 5 4 1 1 1 5 5 7 5 6 7 4 1 8 6 7 6 5 4 6 10 8 4 5 9 7 8 9 9 9 9 10 10 10 5 7 7 8 7 6 6 7 7 7 7 8 9 9 10 10 9 8 5 6 8 7 6 6 6 5 3 4 4 2 1 2 2 1 1 0 1 1 1 0 0 2 2
2 1 7 9 9 10 7 5 2 1 1 3 3 4 7 2 7 5 5 5 3 8 3 3 3 5 5 3 5 8 6 9 11 9 10 10 9 10 11 11 11 6 2 5 5 7 6 7 6 6 7 8 10 7 9 10 11 10 10 11 8 6 6 6 6 6 5 4 6 6 5 4 4 4 3 0 2 1 2 2 1 1 2 2 2 2
1 6 9 11 8 2 1 3 3 4 1 1 4 3 1 6 5 9 4 3 3 2 3 1 5 4 4 2 3 7 15 13 13 16 17 15 12 9 9 9 8 7 6 5 5 4 4 5 5 7 7 9 13 13 12 11 9 9 9 9 8 7 7 6 5 5 5 3 4 5 4 6 3 2 1 2 1 1 2 2 2 0 1 1 1 1
4 6 13 2 3 3 1 3 4 2 1 2 1 1 5 3 2 6 8 4 7 0 2 3 6 2 7 1 3 5 9 10 7 6 8 13 15 13 15 15 13 12 10 11 11 10 9 9 8 9 11 12 10 11 9 9 11 8 8 9 9 8 7 7 4 4 4 5 5 5 6 3 4 4 3 4 3 3 3 4 3 2 1 2 2 2
8 9 4 5 4 4 5 2 0 1 6 2 4 3 1 2 3 5 5 6 4 2 5 6 6 3 5 2 2 3 1 2 7 6 4 3 6 7 6 7 13 15 13 12 9 7 9 11 13 14 12 9 10 10 11 10 10 8 10 10 11 9 8 6 6 6 7 8 7 6 6 5 6 4 3 5 4 3 2 3 4 3 3 2 2 1
9 10 1 3 2 2 3 4 5 4 4 3 6 8 5 2 3 4 3 3 6 4 5 3 2 1 4 6 3 2 3 4 3 10 10 11 8 4 8 12 9 7 9 15 15 15 14 13 9 8 9 8 8 9 9 9 9 9 9 9 9 8 8 8 7 8 8 8 9 8 8 7 5 5 5 6 5 3 4 3 0 3 2 3 3 2
6 3 2 5 5 4 4 5 4 7 7 1 5 7 6 3 2 4 3 3 1 2 2 1 4 1 4 1 2 2 3 6 1 7 10 10 9 8 10 9 10 10 6 5 6 7 7 8 10 8 10 9 8 6 7 7 7 8 9 9 10 9 8 8 8 8 8 8 7 9 10 9 9 8 2 2 3 5 2 3 4 3 3 2 5 3
0 4 3 0 2 4 3 4 5 9 6 4 3 6 4 3 1 2 5 2 1 2 2 4 3 2 1 1 5 4 4 6 5 5 4 6 7 7 6 8 8 9 9 11 11 11 11 12 14 15 12 10 10 8 7 8 7 9 10 9 9 8 8 7 9 8 9 10 7 6 5 6 7 7 7 5 4 3 3 5 4 4 3 3 3 5
1 5 1 1 1 3 6 7 4 8 6 4 2 5 2 1 3 3 3 4 1 1 3 6 3 1 2 3 5 2 3 2 7 8 7 8 9 8 7 8 10 11 14 14 12 11 10 11 11 10 12 9 8 9 11 10 9 8 8 8 7 9 9 8 10 10 8 9 9 8 7 5 2 5 6 4 4 4 3 5 3 4 3 3 3 4
2 5 4 3 4 5 6 3 9 10 2 5 3 4 4 5 5 3 2 4 1 3 2 1 1 1 4 6 3 1 1 2 6 8 10 11 12 10 10 9 8 6 5 5 6 7 8 9 11 9 7 9 11 10 8 6 7 7 7 7 8 8 8 9 9 10 8 7 8 8 7 9 5 4 4 4 5 4 4 5 3 3 4 4 4 3
4 5 6 4 4 6 6 3 7 10 7 3 4 2 2 7 4 3 6 3 4 1 3 2 2 4 1 3 4 1 0 1 1 4 3 5 7 8 8 8 8 9 8 7 5 4 1 0 3 5 10 7 4 4 5 6 7 7 8 9 9 10 8 10 11 10 10 8 8 8 8 10 9 7 7 7 4 4 4 6 3 4 3 2 4 4
5 1 1 3 3 2 2 1 2 1 2 1 0 3 2 1 7 3 3 5 3 2 2 2 1 2 4 3 3 7 6 3 6 6 9 12 13 14 10 8 8 8 7 5 5 5 5 4 3 4 5 6 6 5 6 6 6 7 8 9 9 6 7 8 9 9 9 8 7 8 10 11 10 10 8 9 9 6 6 5 5 2 3 2 3 3
3 5 2 6 3 7 2 2 2 4 5 6 5 6 5 2 2 3 2 1 2 4 1 1 2 3 2 6 4 6 6 7 6 8 10 13 15 13 11 7 7 5 5 6 5 6 5 6 6 6 6 5 6 9 9 9 8 8 8 9 10 8 4 5 6 6 5 4 5 8 9 9 9 9 8 8 7 7 7 6 5 4 5 2 3 3
5 3 3 5 4 2 6 5 1 1 1 5 3 4 5 1 2 3 2 0 3 5 4 0 2 1 3 6 4 6 7 5 3 4 5 6 8 11 9 6 6 5 6 6 7 7 8 7 6 6 8 9 8 8 9 8 7 7 7 7 8 8 9 10 11 12 11 9 7 6 8 9 9 8 8 7 8 7 6 6 7 6 6 6 5 5
1 1 5 2 3 2 5 7 10 5 6 7 5 9 7 7 4 3 4 3 5 6 1 4 1 3 2 2 4 7 5 4 5 2 3 5 6 6 6 7 6 5 4 4 4 5 6 6 6 6 6 6 7 8 8 7 7 7 7 8 9 9 8 9 10 10 11 9 10 8 4 7 7 8 7 7 7 8 7 5 6 6 5 6 5 5
3 5 5 5 2 1 5 3 4 5 3 0 3 6 5 5 6 2 3 3 2 2 1 1 2 3 3 3 5 3 5 8 5 5 4 8 7 9 9 9 7 7 6 4 4 3 2 3 5 6 7 8 7 8 6 6 7 8 7 5 4 6 7 7 9 12 12 13 9 3 4 5 8 6 6 6 6 7 8 7 7 7 6 5 4 3
2 0 2 7 1 1 1 1 2 5 3 2 3 3 5 2 9 5 2 2 4 5 3 0 4 4 5 5 8 9 6 6 6 5 5 8 8 8 8 7 8 8 8 8 7 0 1 1 2 3 5 5 4 5 8 9 7 6 6 7 10 10 9 11 14 15 12 6 1 2 3 5 5 6 8 8 8 8 6 6 6 7 6 4 3 4
6 4 4 3 2 1 1 3 3 4 3 7 1 5 2 2 5 5 2 3 4 2 3 2 1 4 4 1 7 8 4 4 5 4 4 4 5 12 7 5 5 5 5 6 8 5 1 1 2 2 1 3 5 4 4 4 4 5 6 9 11 10 11 12 15 15 13 10 0 3 1 2 3 6 8 8 9 7 7 5 5 4 6 5 5 3
4 1 2 1 2 6 4 4 5 4 1 2 4 4 4 1 1 3 5 1 1 0 2 2 1 1 0 1 4 1 1 1 1 0 7 7 5 5 7 7 6 5 6 5 5 5 3 3 3 2 1 2 2 4 6 7 8 9 10 11 13 12 11 10 5 3 2 11 11 11 9 13 12 7 7 7 6 7 7 7 6 6 7 4 4 3
2 3 4 2 2 2 3 5 1 5 6 2 2 2 0 4 3 3 4 4 7 2 2 2 5 0 2 2 2 7 7 4 4 2 2 3 4 4 7 5 4 4 4 3 2 3 1 1 2 3 4 4 4 5 5 6 6 9 12 15 14 14 15 16 18 17 13 10 11 12 8 9 9 6 6 7 7 8 8 7 7 6 4 6 4 3
2 1 3 2 2 2 2 1 2 1 1 4 6 5 2 3 1 5 1 1 4 6 4 3 1 1 4 4 3 7 8 8 6 5 2 1 1 2 3 3 5 4 3 3 3 4 4 4 4 4 3 2 4 4 5 7 9 9 7 8 12 16 16 18 16 14 11 11 12 10 9 10 9 9 6 6 7 8 9 8 7 5 5 4 4 4
3 1 6 2 4 3 3 3 0 1 1 4 3 1 3 1 4 4 3 1 2 5 4 5 2 5 8 2 4 4 7 7 6 6 2 2 2 3 3 3 3 4 3 4 5 4 4 2 2 2 2 2 2 3 5 5 7 8 8 8 8 9 10 10 8 6 8 11 11 4 0 0 4 6 5 6 6 6 7 9 8 6 4 5 5 5
3 3 5 2 2 3 1 4 3 3 8 7 6 3 3 1 5 4 5 4 2 1 5 4 7 2 5 5 7 7 5 2 6 10 6 5 3 4 3 3 3 3 3 3 2 1 3 2 1 3 3 3 1 0 2 4 6 7 6 6 6 7 5 7 10 11 9 7 5 6 5 1 2 2 4 5 5 4 3 2 5 8 8 6 5 4
5 2 4 2 3 4 2 3 2 3 2 6 5 2 3 2 1 4 1 6 6 1 3 2 2 3 4 10 9 8 5 4 6 4 8 5 4 4 5 5 4 4 3 3 3 2 1 3 4 5 4 4 3 1 1 1 2 4 4 5 6 6 5 5 5 5 4 3 3 3 4 3 5 8 7 7 6 7 5 4 2 1 4 6 5 5
1 2 5 3 2 1 1 3 4 6 6 3 2 2 2 1 3 0 4 1 5 1 4 8 4 2 3 9 8 9 8 10 7 5 3 8 4 5 7 7 6 5 5 4 4 4 4 5 5 4 3 3 3 3 2 0 0 1 3 4 4 3 3 4 6 6 6 7 6 5 6 4 6 7 7 6 4 4 4 5 6 4 2 3 3 3
2 1 3 3 6 5 3 3 3 0 0 1 1 4 4 6 3 1 1 3 4 1 4 5 3 2 4 8 11 12 10 8 7 5 4 2 4 7 6 6 6 5 5 4 4 4 5 4 3 3 3 3 3 3 3 3 2 1 2 2 3 5 4 4 5 6 6 5 6 4 7 5 4 4 6 4 3 3 5 6 7 7 4 3 3 4
2 2 2 4 6 7 6 4 1 4 2 4 1 3 3 2 3 6 5 4 3 3 3 1 4 2 7 10 9 11 9 8 8 8 6 5 5 4 3 3 3 3 3 3 3 3 4 4 4 3 2 2 3 3 4 3 3 3 4 5 4 4 6 5 7 7 8 7 8 8 7 7 7 8 8 7 5 5 6 7 8 6 4 5 5 5
3 3 2 4 5 3 2 3 1 4 6 1 3 2 4 3 1 3 1 1 4 9 1 1 2 4 1 5 7 9 9 7 8 8 7 7 7 5 3 3 5 5 5 4 4 4 4 3 4 5 5 5 4 3 4 4 4 4 4 5 4 4 6 6 8 9 9 9 8 8 9 9 8 8 9 9 9 8 7 5 5 6 8 7 4 4
4 2 0 3 3 4 1 5 8 10 7 4 4 1 3 2 4 5 0 1 2 4 7 2 3 6 1 4 7 6 6 6 7 8 6 4 6 6 8 9 8 8 7 8 7 7 7 7 6 6 5 5 6 6 4 3 3 3 4 4 4 4 5 6 10 10 10 9 9 7 8 10 7 6 6 4 5 9 11 11 9 5 3 7 7 5
5 1 0 3 4 4 4 3 6 13 4 7 6 6 3 9 6 5 4 2 7 9 7 9 9 7 2 4 6 7 6 4 5 5 11 14 10 8 10 11 11 10 10 10 9 9 8 9 9 8 9 9 8 7 6 4 2 2 2 3 3 4 4 4 6 8 8 8 9 8 8 9 12 13 11 8 6 5 7 8 8 9 9 10 10 8
5 2 5 3 3 2 3 4 7 9 9 8 6 6 4 6 10 7 5 6 12 9 5 7 11 7 4 3 5 5 5 2 12 16 12 10 11 11 12 11 11 11 11 11 11 11 11 11 12 12 12 11 9 8 7 6 5 3 2 2 3 2 0 1 5 5 7 9 8 9 10 9 8 10 11 11 9 7 6 5 6 7 6 5 5 7
4 1 3 3 5 1 1 4 7 11 14 11 6 7 5 4 8 4 4 3 2 9 4 9 8 2 2 6 4 4 8 15 13 11 12 10 10 11 13 11 11 10 11 10 10 11 12 11 12 12 11 11 11 10 8 8 7 4 3 2 2 2 1 1 1 3 3 5 5 6 8 7 5 6 6 4 4 5 7 7 7 7 8 8 8 8
1 5 3 3 5 2 1 1 5 4 4 5 3 1 4 7 7 7 7 10 5 4 6 7 3 0 1 3 3 8 10 11 12 10 9 10 10 10 10 9 8 8 8 8 8 8 8 8 7 7 9 9 10 10 10 9 9 8 6 4 1 2 3 2 1 0 1 2 3 4 4 4 5 5 4 4 4 5 5 7 7 7 6 8 6 4
1 5 3 1 4 2 0 2 1 2 1 3 2 2 2 4 9 13 6 5 6 4 3 3 4 1 3 4 6 5 9 8 5 5 5 6 8 10 10 9 8 8 9 8 7 6 6 5 6 6 5 5 7 8 6 6 9 10 7 4 3 2 2 3 2 1 0 0 0 1 2 2 3 4 4 4 4 4 6 6 8 7 5 3 2 4
2 3 2 2 4 2 1 2 3 1 4 2 4 2 6 6 17 17 9 6 5 6 7 7 7 5 2 1 3 4 4 4 5 7 8 7 7 7 8 9 9 9 10 10 12 11 8 6 6 7 8 8 8 7 9 10 10 10 11 9 5 4 4 3 4 2 1 0 0 0 1 3 3 4 4 4 4 4 5 6 5 4 4 5 6 6
0 3 2 2 3 2 3 1 2 3 2 2 1 4 3 2 6 15 12 7 5 3 3 5 3 2 2 3 2 1 2 3 3 7 8 7 7 6 7 7 7 7 9 7 8 9 10 10 7 6 6 3 6 6 6 7 7 9 10 7 6 5 4 3 3 3 1 2 2 3 3 4 4 4 5 4 5 6 6 5 6 6 4 4 4 3
4 3 2 1 0 4 2 3 1 3 2 1 1 2 1 1 1 2 8 1 2 3 3 3 4 3 3 3 3 4 3 2 5 7 8 8 8 6 5 6 5 6 5 5 5 6 6 7 8 7 6 6 5 6 6 6 7 6 8 11 10 8 7 4 4 2 1 1 0 1 3 5 5 5 5 5 6 5 6 5 4 4 3 6 4 4
4 5 3 4 2 6 7 4 2 0 2 8 4 3 3 3 2 2 6 3 2 4 1 3 4 3 3 3 4 3 2 2 6 6 7 8 6 6 6 5 5 5 6 6 6 7 7 7 8 9 8 8 9 8 6 4 4 4 5 6 6 9 10 9 6 3 1 1 2 2 3 3 6 6 5 5 6 5 5 4 2 2 2 5 5 4
6 4 4 7 3 3 3 7 4 6 5 4 2 4 4 3 3 2 6 1 0 2 0 5 6 3 3 3 4 3 4 1 2 4 6 7 7 5 5 6 5 5 4 5 5 6 6 6 5 5 7 9 10 11 10 8 6 5 6 5 4 3 5 6 7 4 4 2 2 3 4 1 2 2 6 5 6 6 5 5 4 3 3 5 5 4
9 4 4 2 2 3 6 4 4 2 1 1 4 4 4 3 2 2 2 5 2 1 0 3 6 4 4 2 3 6 5 2 4 5 3 5 5 5 4 5 6 6 7 5 4 2 2 3 6 7 7 6 6 6 8 8 8 7 6 6 4 3 2 2 5 3 4 4 1 1 1 2 2 1 2 4 5 4 3 2 4 4 5 4 5 6
5 4 6 1 2 2 6 1 3 1 3 2 3 3 7 0 4 5 7 5 3 2 1 4 4 2 2 4 3 3 1 1 2 4 5 5 6 6 4 3 4 4 6 6 7 7 5 4 2 3 3 3 4 5 5 5 6 8 7 7 6 5 5 5 5 4 5 2 1 2 2 3 4 4 3 2 2 2 1 1 1 3 5 5 5 6
3 1 1 4 6 2 1 6 3 2 3 2 4 0 3 2 4 6 1 1 5 3 1 2 4 1 2 2 1 1 1 3 3 3 4 4 4 4 4 4 5 6 4 4 6 6 6 6 6 5 4 3 3 4 4 4 5 6 6 7 8 9 7 4 4 3 3 4 4 2 2 3 3 3 4 3 3 2 0 0 3 4 4 5 6 5
2 2 1 1 1 2 3 4 3 2 0 4 7 3 4 2 1 2 3 2 2 3 3 1 2 2 2 0 2 2 3 4 3 4 4 6 6 9 11 10 9 8 8 8 8 7 7 7 7 6 6 5 4 3 4 4 5 6 5 5 7 8 8 5 4 5 3 3 2 3 4 4 4 3 3 3 3 4 2 1 3 3 5 6 5 5
0 3 1 1 0 2 2 2 1 0 3 6 2 4 2 3 6 4 4 2 1 2 3 3 2 3 3 2 1 2 3 3 5 4 5 6 6 7 7 7 8 9 9 7 5 5 5 6 6 8 7 6 5 4 4 4 5 6 6 7 6 5 5 6 6 3 4 5 5 3 4 4 4 3 3 4 4 4 5 4 4 4 5 5 6 6
4 3 1 2 3 1 1 4 1 1 3 4 6 5 3 2 3 4 4 3 4 2 3 4 3 3 3 3 3 3 2 3 4 5 4 5 6 6 6 7 7 8 9 9 10 9 7 8 8 7 7 7 7 7 5 4 6 6 7 7 5 4 4 5 5 5 4 5 6 6 6 7 6 6 4 4 4 4 4 3 5 6 4 6 6 6
4 8 7 8 5 6 7 5 2 1 3 5 5 2 3 2 1 3 4 3 3 3 4 4 3 3 2 3 2 2 3 3 3 4 4 4 5 5 5 5 5 5 7 8 9 9 8 9 9 8 9 8 5 6 6 6 5 7 7 6 6 6 5 4 5 5 5 4 4 6 5 7 7 7 7 5 6 7 7 8 6 6 7 6 7 6
0 0 2 6 7 4 1 3 3 4 1 1 2 2 2 0 2 3 2 2 3 3 2 2 2 2 2 3 2 2 3 2 2 3 3 4 5 6 7 8 8 6 7 9 8 8 10 9 10 10 9 10 6 4 5 6 7 7 7 8 8 7 6 6 5 6 5 4 3 4 5 6 6 6 5 5 7 6 5 5 6 6 6 6 6 6
1 1 7 2 3 2 3 6 3 2 1 1 2 2 2 1 0 1 0 0 1 1 1 1 1 0 0 2 2 1 3 2 2 3 3 4 5 6 7 8 10 10 10 8 8 8 10 10 11 12 12 11 9 5 5 6 8 9 9 8 8 7 7 7 7 7 6 7 5 3 3 5 8 8 6 3 3 5 5 6 7 8 8 8 8 7
2 2 2 1 3 1 2 1 1 1 3 3 3 3 2 2 2 0 0 1 1 1 1 1 0 1 1 2 2 3 3 3 3 3 4 5 6 6 7 8 9 9 10 11 10 9 10 10 11 12 13 14 10 8 8 9 9 8 9 10 9 8 8 9 8 7 7 7 5 6 4 3 3 5 5 5 3 3 1 2 3 4 4 2 4 8
2 2 1 4 5 1 3 3 6 4 3 5 3 2 3 2 3 3 1 1 1 2 2 1 2 3 3 3 3 2 2 3 4 3 4 5 6 8 8 9 9 10 11 10 10 11 11 11 11 13 14 13 11 10 11 11 11 9 7 8 9 8 8 9 8 6 7 6 6 6 5 4 4 2 2 3 6 6 4 5 6 1 2 3 1 3
1 2 3 2 6 2 4 4 4 3 1 2 1 1 2 3 4 4 4 3 2 3 1 2 1 2 2 1 0 1 3 4 5 4 4 5 7 7 8 9 10 10 11 11 12 13 12 12 12 12 14 13 10 11 11 11 10 7 5 4 7 8 8 7 7 6 7 6 5 6 5 5 4 3 3 3 3 5 6 5 6 9 8 2 1 5
Wind_Direction
110 157 213 218 223 219 231 180 193 207 164 131 172 212 265 268 279 266 258 255 197 248 242 196 222 237 275 123 167 173 177 172 151 164 170 184 183 176 178 181 184 192 197 192 185 175 171 163 169 155 143 143 135 143 147 143 146 148 149 141 145 153 136 126 120 113 123 118 102 88 112 122 109 89 35 7 350 345 39 51 24 20 50 106 143 140
77 201 252 222 217 204 211 208 201 96 143 212 264 259 281 222 261 263 289 326 317 166 346 145 176 261 258 201 197 150 157 187 185 169 177 188 189 184 181 182 188 179 105 145 172 176 162 159 167 147 144 143 138 157 153 157 163 156 150 143 145 140 136 131 132 134 123 144 155 148 165 139 128 114 107 48 321 327 352 18 32 17 356 355 10 43
52 212 242 227 222 184 133 126 159 185 203 165 198 229 245 271 250 287 298 330 333 124 287 121 134 228 248 35 322 174 180 202 188 177 181 180 183 185 187 183 163 166 181 173 177 161 153 148 154 147 148 163 162 162 165 165 159 155 150 142 143 150 143 136 126 121 136 119 135 136 158 141 112 33 61 93 25 6 29 20 37 114 164 184 143 117
281 272 249 232 127 171 289 160 151 105 68 182 276 241 244 242 358 305 298 359 348 81 206 153 111 295 318 143 203 264 193 195 199 188 182 180 178 183 187 179 174 179 171 180 180 173 166 164 162 161 172 174 160 159 160 164 159 157 156 150 147 152 145 130 119 112 105 103 91 86 107 76 102 131 102 85 55 42 32 23 18 36 94 117 113 122
217 238 169 99 126 153 239 311 278 273 286 276 203 213 230 272 239 175 271 329 309 16 89 72 52 341 343 354 34 54 357 206 170 155 168 250 246 209 169 168 178 177 178 176 172 174 169 171 177 178 176 163 166 164 163 164 163 164 165 158 153 154 146 127 120 122 120 107 94 92 77 88 81 61 71 87 60 52 95 68 41 8 18 54 71 94
270 266 200 250 187 155 180 269 246 159 246 314 238 199 201 188 250 282 338 24 24 344 351 99 47 264 307 294 268 292 75 160 204 172 189 194 189 171 190 191 187 190 183 173 179 182 183 177 169 170 165 169 169 170 168 166 167 164 164 156 154 145 129 129 133 141 136 139 136 130 125 125 122 128 123 126 137 110 105 108 359 43 49 82 68 49
222 303 131 237 206 170 176 209 235 162 198 120 270 188 204 186 141 270 346 76 354 109 313 41 129 254 329 159 234 303 119 172 174 202 197 187 188 195 200 186 183 180 187 212 190 167 162 171 167 172 175 175 171 173 166 171 170 170 158 162 157 148 138 135 143 149 140 140 151 155 155 155 155 147 194 179 152 128 104 80 76 55 37 58 98 66
332 301 4 20 189 157 149 246 243 167 130 216 243 136 108 103 192 251 113 112 195 253 280 40 99 133 319 299 280 311 136 177 200 226 207 197 202 209 200 192 187 183 182 179 186 186 182 176 173 176 176 176 179 171 173 173 173 169 164 165 160 150 144 145 148 155 155 150 154 146 144 150 151 153 155 149 146 117 116 93 88 84 48 39 73 99
148 307 333 341 131 130 193 210 188 150 153 216 189 170 146 177 208 131 97 110 308 94 294 329 345 69 272 263 308 312 106 203 208 209 213 210 205 204 199 197 195 191 189 185 179 183 179 179 184 170 177 178 165 175 180 181 175 171 168 164 155 152 147 152 157 154 163 152 154 149 142 134 145 134 135 132 116 113 106 98 64 81 68 57 54 90
280 208 246 150 130 212 231 209 163 156 182 280 142 87 76 81 73 74 90 92 354 63 281 281 3 159 290 284 345 304 156 226 244 215 212 207 205 199 198 201 200 198 192 191 188 178 183 188 186 179 153 165 184 185 177 166 164 168 165 162 160 160 160 157 160 155 157 152 144 143 148 139 142 127 110 112 121 120 120 116 113 97 93 94 83 81
256 314 160 140 199 213 211 204 175 176 192 138 110 72 18 44 20 23 59 83 66 30 260 245 300 137 295 273 227 96 136 217 286 310 242 233 221 216 209 190 177 186 189 192 156 134 143 282 151 147 168 167 143 154 172 173 174 169 171 169 171 173 163 161 160 157 156 158 154 147 152 147 147 150 141 131 126 121 116 132 146 132 136 109 116 110
336 348 47 247 210 127 160 129 40 23 34 126 75 127 76 328 14 26 343 37 97 270 260 253 191 129 137 292 306 237 279 220 193 209 208 201 204 204 202 187 181 181 187 158 133 129 136 145 144 144 152 157 163 154 178 188 179 177 180 176 173 169 163 162 156 150 150 156 161 156 154 153 156 156 156 155 157 160 155 154 156 156 108 106 99 110
293 251 247 310 241 165 124 134 277 33 19 82 77 47 118 237 45 236 7 256 172 179 215 289 173 44 223 214 249 287 260 271 220 216 209 202 201 199 185 177 170 154 146 148 138 139 153 170 174 169 171 160 165 180 185 188 186 184 183 179 174 171 123 100 97 104 106 129 161 158 156 152 157 160 162 156 157 161 158 160 148 144 148 147 119 154
269 295 335 279 321 209 131 150 220 161 338 113 139 134 93 107 56 206 283 299 322 287 257 276 288 223 250 301 240 245 271 289 302 230 204 199 195 173 158 145 136 139 149 149 152 161 171 177 186 185 181 182 183 186 188 186 187 188 185 178 169 150 145 145 145 150 151 150 154 170 160 157 159 165 162 163 161 168 163 163 163 162 164 171 173 172
83 332 294 156 220 230 154 168 181 175 170 206 138 144 180 148 155 210 193 189 208 182 250 287 53 223 108 219 307 267 293 16 4 7 82 93 111 114 105 102 101 97 90 107 127 151 167 183 183 185 190 193 191 187 187 186 189 184 181 172 164 156 158 153 155 159 158 156 154 149 158 161 164 163 169 172 171 162 163 179 163 168 165 170 190 178
179 200 256 224 253 116 202 224 126 101 77 305 141 82 92 224 145 149 206 150 172 158 18 153 205 193 122 279 341 316 56 35 14 15 69 85 93 108 106 105 100 95 84 62 75 72 68 153 188 192 195 198 195 195 181 178 183 189 185 148 118 101 84 64 41 26 22 13 20 36 140 192 169 170 167 170 180 171 169 172 172 171 174 187 180 199
9 299 277 314 316 195 226 103 257 133 190 258 93 176 206 152 103 94 66 72 88 54 251 158 323 321 299 349 10 335 53 41 35 23 44 93 94 87 101 108 116 121 122 110 101 60 244 84 93 191 213 215 205 180 185 190 185 172 132 123 108 107 114 123 137 143 142 164 299 293 250 181 186 172 176 180 187 179 175 167 175 170 176 170 190 192
146 233 299 47 52 32 268 141 68 30 140 94 131 228 148 92 115 122 154 339 58 138 254 36 338 323 30 203 326 0 14 85 83 53 40 43 98 116 117 108 117 129 125 135 140 151 198 149 113 120 145 200 199 173 146 135 130 129 113 106 111 118 133 149 151 158 157 134 346 281 186 6 276 209 191 187 185 177 163 170 172 161 163 189 187 192
116 305 298 255 233 281 340 63 21 324 58 167 202 163 96 256 159 332 93 72 100 239 278 14 279 287 128 324 334 2 322 315 2 14 130 112 91 107 117 132 141 139 133 146 144 142 134 118 114 86 47 39 102 147 156 149 136 119 117 124 129 128 117 99 56 42 153 157 177 215 192 186 208 212 206 200 191 167 169 174 179 182 187 163 176 190
48 158 286 300 143 302 31 64 65 293 333 32 67 44 346 98 149 122 192 164 114 212 85 272 47 114 264 240 224 263 264 247 226 300 310 87 113 141 146 139 80 35 22 15 37 62 63 92 134 137 126 111 111 119 124 122 120 138 145 144 143 142 145 150 163 174 184 175 193 205 198 189 188 196 215 201 189 184 179 180 180 187 174 187 166 187
90 113 189 282 285 30 36 344 189 168 340 340 29 341 359 28 221 106 55 84 158 162 167 151 23 295 269 218 203 248 261 255 206 205 241 321 31 38 36 43 74 56 41 25 14 14 9 12 15 16 18 61 92 109 125 139 143 145 142 143 151 154 163 166 168 174 161 165 219 213 185 190 184 187 196 219 206 196 182 174 181 189 190 149 185 165
88 94 187 303 27 29 203 248 186 162 178 140 141 98 195 121 124 129 233 32 85 104 188 114 203 270 270 272 286 273 263 242 227 160 207 90 50 30 38 33 66 82 48 40 23 11 355 350 28 36 39 33 78 118 132 142 140 151 160 161 165 167 173 164 158 145 154 193 212 233 289 270 218 188 177 199 219 223 195 173 177 187 158 185 191 171
145 145 94 102 160 152 184 35 2 82 100 94 102 51 133 93 99 91 133 248 38 84 110 140 115 273 257 323 340 313 306 247 188 165 148 128 115 104 72 45 30 50 74 62 76 216 223 202 99 85 70 52 32 47 139 146 157 162 157 155 171 176 169 168 173 173 187 186 161 140 133 104 299 288 185 198 208 227 262 263 202 169 175 191 187 185
85 71 66 328 326 317 331 319 25 69 60 40 19 43 70 15 265 167 169 182 131 156 102 48 66 249 302 357 348 344 349 32 42 77 120 113 120 110 112 109 113 109 128 162 184 193 164 63 61 57 48 45 33 14 334 273 164 159 161 162 167 172 163 142 147 143 140 118 109 97 80 105 162 201 190 184 189 185 182 152 141 241 205 180 169 182
85 299 119 105 38 348 342 345 0 347 45 78 48 329 349 46 68 145 102 49 85 227 166 115 174 256 338 352 352 7 20 44 50 42 86 126 130 135 139 145 153 155 156 148 129 109 78 63 56 47 47 54 37 24 27 4 314 194 166 153 152 143 125 120 124 123 122 119 117 122 120 134 143 158 176 178 175 146 96 78 59 45 51 94 105 108
80 167 100 147 161 166 176 194 230 299 17 283 39 349 5 45 0 38 74 7 107 267 94 114 165 248 286 356 7 12 12 24 22 23 37 55 133 151 155 154 157 155 152 142 121 92 86 88 80 64 50 37 41 59 58 65 72 70 74 75 96 105 91 102 109 119 123 125 113 98 91 67 49 77 100 95 79 91 102 106 110 106 80 42 53 64
116 73 85 157 160 187 201 192 228 108 36 65 311 38 343 35 41 90 103 85 142 183 70 224 143 103 16 352 2 0 10 14 5 7 18 18 5 10 22 33 35 29 29 41 69 69 70 72 74 79 66 47 31 45 70 74 72 69 79 72 74 103 119 125 115 112 109 112 118 116 115 117 117 116 104 94 89 91 100 108 113 112 107 108 90 75
55 51 349 93 69 151 180 99 140 116 117 67 96 346 335 11 36 78 119 184 162 91 122 357 204 94 314 330 339 351 355 6 16 19 16 23 22 17 3 22 41 44 35 33 31 47 69 40 23 23 14 14 16 25 46 65 89 108 110 106 103 118 118 119 111 111 114 122 126 131 133 128 124 115 118 122 119 108 97 83 87 102 110 91 87 108
140 119 247 83 23 26 26 106 102 81 83 118 98 90 58 358 73 101 15 78 100 141 179 134 117 95 304 328 330 335 349 350 6 16 24 31 35 32 37 39 39 35 30 27 14 13 17 21 13 17 19 11 3 3 15 42 52 69 88 98 112 115 113 133 128 129 129 126 129 137 128 112 89 70 65 63 90 120 121 123 117 102 102 133 148 162
90 21 70 88 93 42 30 97 120 105 111 63 39 41 52 81 61 78 67 18 90 94 111 114 88 79 356 323 343 342 329 360 27 36 41 35 25 35 46 41 37 35 33 31 27 25 27 25 21 14 16 11 4 358 357 357 15 29 86 94 93 120 141 143 133 132 133 134 138 138 132 135 139 142 145 146 156 167 146 143 144 154 174 176 169 154
100 249 154 100 69 2 342 25 79 98 102 86 48 50 53 90 71 34 72 69 87 67 77 88 82 62 355 358 360 341 334 352 48 41 40 39 35 43 50 43 40 38 34 33 30 31 34 32 28 25 21 11 3 352 350 344 341 355 19 30 69 92 56 143 147 148 152 153 161 153 149 153 158 153 157 166 172 165 143 137 138 142 156 154 158 157
67 159 59 81 110 194 340 81 100 94 83 79 47 21 18 43 70 350 48 307 116 142 142 91 73 54 308 350 336 357 39 46 48 39 39 34 33 42 50 44 42 38 35 32 30 30 30 29 27 25 21 17 15 7 0 349 334 357 8 32 49 57 42 47 119 162 178 167 155 153 156 160 161 149 149 163 167 171 152 148 153 169 176 175 175 183
105 129 104 87 104 237 252 133 147 98 69 33 343 342 104 77 115 114 62 43 47 123 83 113 177 226 282 326 43 33 45 52 47 36 36 36 37 43 44 41 37 33 29 27 29 31 30 25 20 20 20 23 16 14 6 2 1 347 337 353 1 89 74 76 52 41 157 198 166 155 171 173 159 153 155 183 172 163 157 151 165 183 190 195 186 153
70 97 133 144 135 227 286 353 347 62 184 227 253 242 206 153 133 88 51 30 15 57 129 146 125 68 38 28 57 48 50 46 49 41 58 59 42 39 40 39 37 32 27 23 21 20 16 21 21 19 23 24 22 16 2 12 8 350 323 319 352 55 95 96 63 85 56 356 359 154 166 150 138 154 169 173 173 166 158 159 181 193 204 199 170 183
89 74 118 140 95 190 339 30 53 200 233 341 9 60 95 117 97 93 84 54 35 49 69 65 51 43 4 20 87 93 83 61 46 41 31 31 50 54 47 36 33 29 22 19 16 10 3 3 11 18 19 18 19 8 9 6 7 351 355 348 348 24 29 36 88 70 105 177 259 209 134 134 134 151 151 148 147 138 152 172 179 193 203 196 197 196
152 105 173 53 111 67 60 59 146 250 139 97 7 70 144 75 86 85 52 20 15 26 77 71 54 9 9 19 333 263 126 53 33 45 30 21 29 37 44 36 26 26 23 13 10 1 3 358 351 359 2 14 20 11 15 13 6 4 346 342 359 357 34 27 37 50 57 139 212 178 158 138 130 129 130 129 130 129 141 152 163 166 169 135 127 131
134 91 98 124 112 163 172 87 121 119 88 246 325 279 221 200 315 134 122 300 353 335 31 102 67 34 21 352 308 307 293 356 32 6 14 12 7 12 29 28 23 15 18 10 12 3 353 357 360 341 340 355 13 13 6 8 15 359 355 346 351 355 11 35 28 336 76 339 321 234 177 153 147 147 150 148 129 133 139 137 143 147 135 91 96 98
145 175 231 150 250 121 120 85 60 19 209 229 230 272 314 260 285 193 107 128 24 347 12 115 99 85 41 343 354 341 48 50 4 331 339 351 358 3 356 12 14 16 12 2 5 11 6 1 2 360 3 344 346 352 348 1 11 2 354 334 344 5 352 1 5 357 32 245 242 209 243 213 157 155 158 147 148 151 155 141 142 157 177 122 125 107
22 66 131 156 169 81 96 135 188 171 241 205 250 261 283 269 245 127 63 136 293 302 265 132 99 90 84 61 350 15 67 77 261 278 307 341 341 354 355 353 358 356 353 4 4 358 353 352 348 358 9 11 4 347 342 335 335 345 331 320 321 43 347 340 319 347 15 3 281 231 182 220 319 195 161 164 174 161 158 168 153 139 104 109 105 103
34 4 29 76 111 185 153 136 192 191 177 258 249 280 286 273 136 79 114 256 238 304 306 98 96 92 77 78 89 68 91 144 270 277 314 333 321 316 333 339 346 343 339 335 339 332 319 338 2 7 8 358 339 331 346 346 341 334 324 315 300 295 283 286 289 283 328 318 339 140 159 174 168 239 247 192 177 176 152 128 125 118 102 76 93 101
357 345 49 149 145 88 99 95 41 337 282 271 272 284 324 182 125 130 203 221 189 186 191 117 113 115 104 76 76 100 243 185 248 289 320 313 320 321 321 316 314 320 320 325 324 332 341 346 3 337 313 308 309 328 334 347 351 336 327 323 321 288 257 241 235 224 256 244 282 101 149 182 177 174 200 225 176 139 100 90 80 107 108 106 88 88
6 37 336 62 32 46 119 105 164 211 240 352 288 335 300 122 176 220 226 151 134 184 198 131 128 172 112 101 138 164 244 273 280 280 281 294 291 273 270 297 311 319 313 311 315 327 329 326 329 322 313 290 304 309 327 343 347 318 327 334 319 304 297 273 258 275 264 207 191 152 177 161 174 173 167 164 121 122 85 101 117 116 109 116 114 105
298 81 357 57 315 46 43 86 96 111 338 7 305 9 19 114 219 145 104 36 143 159 150 211 137 197 138 110 267 254 283 300 290 286 293 301 315 324 328 331 331 326 323 326 327 323 321 321 316 309 298 304 302 303 300 328 320 311 315 322 303 306 312 314 283 270 229 213 214 180 174 191 166 155 131 136 146 125 151 104 100 108 123 118 107 110
320 86 8 27 311 125 58 87 172 322 279 306 112 124 347 85 140 157 113 128 185 168 167 166 219 204 196 168 203 275 267 282 314 313 323 317 316 319 321 320 323 324 324 316 302 295 297 287 291 299 304 300 299 295 282 276 286 290 296 288 284 309 321 324 320 295 255 241 223 176 179 188 195 179 172 160 161 154 149 137 126 124 127 126 127 124
343 143 207 157 337 92 149 137 186 256 267 342 60 92 94 65 96 143 136 156 158 229 205 144 188 220 199 189 205 215 256 259 258 286 292 289 302 304 308 311 313 313 313 314 313 314 313 304 300 293 287 289 296 296 287 268 264 269 275 277 284 292 308 317 319 321 320 278 252 215 193 190 192 198 186 191 165 169 160 154 152 137 158 134 136 141
55 110 110 92 74 86 61 78 109 42 45 46 28 44 92 79 32 121 148 145 223 206 179 169 197 196 212 190 169 265 219 259 278 291 290 298 301 299 301 303 304 303 307 311 315 316 310 306 301 298 297 293 281 286 291 288 270 267 264 279 289 283 287 295 303 312 307 289 278 278 241 224 232 236 224 188 191 186 183 172 168 157 159 144 145 151
244 187 56 111 169 93 133 169 169 150 145 135 73 27 4 127 197 181 158 184 194 186 197 231 172 197 198 181 203 216 248 268 286 298 312 318 319 315 311 308 305 301 302 305 301 311 312 313 308 302 300 298 296 286 287 294 290 273 282 286 283 287 289 287 287 291 286 283 275 257 272 257 234 228 233 191 194 202 181 160 141 142 147 157 149 141
5 84 77 98 79 107 189 158 210 217 207 199 193 178 167 202 281 340 306 270 184 199 182 207 192 314 154 327 326 352 310 347 19 329 319 304 299 302 301 302 305 308 305 299 299 302 301 300 297 299 301 296 297 296 283 280 282 288 289 286 285 283 282 281 275 268 269 279 279 268 220 240 250 226 202 182 169 187 179 186 161 158 160 169 169 155
248 24 163 144 93 336 5 337 2 49 344 306 306 302 273 237 190 319 26 90 128 182 279 320 7 302 352 316 45 61 26 333 320 297 300 300 300 299 299 298 297 295 296 300 298 297 290 293 293 292 293 290 293 292 285 278 274 276 279 280 278 275 273 269 265 258 263 260 257 266 264 230 228 258 230 161 104 64 117 189 215 196 196 228 172 169
55 73 154 66 72 333 183 208 133 135 254 256 265 246 259 252 173 166 179 171 235 216 255 253 351 22 71 106 108 83 349 298 294 291 295 291 293 294 299 299 298 297 297 295 293 290 286 281 282 286 286 287 291 289 283 281 278 269 259 267 275 272 263 258 254 263 263 258 253 255 256 257 261 219 202 206 159 140 86 55 88 113 184 236 242 162
104 178 136 140 157 219 243 226 183 164 185 219 199 280 249 217 163 168 197 205 233 242 212 156 129 31 34 353 198 289 293 278 281 284 286 290 290 287 285 289 294 295 293 297 298 295 290 287 285 282 281 282 283 279 280 279 277 277 272 266 270 273 264 248 252 253 251 260 264 260 253 254 245 225 174 183 197 164 141 118 41 41 43 66 110 157